RH
17 19 23 21 17 16 15 15 14 13 14 16 18 19 23 27 31 37 39 36 37 40 40 41 40 38 36 34 36 39 39 38 38 37 38 40 40 40 40 41 42 42 42 44 45 44 41 38 39 40 40 40 40 39 37 33 32 32 31 30 30 29 29 29 29 32 32 32 34 34 33 34 33 29 29 31 33 36 39 38 35 34 35 35 34 36
17 17 18 17 15 15 15 14 14 13 13 15 18 20 23 25 29 36 37 34 37 39 39 40 40 38 36 35 35 37 38 39 39 38 38 40 40 39 39 40 41 42 42 43 44 42 40 38 37 38 38 39 39 38 36 32 30 33 32 28 29 29 25 25 26 27 27 28 30 31 30 33 34 30 28 30 30 32 36 35 31 32 33 33 34 35
17 15 15 14 14 14 14 13 13 13 12 13 16 19 22 23 27 33 34 33 37 37 37 39 40 38 36 34 34 35 37 40 40 37 36 38 39 38 38 40 41 43 42 41 42 41 40 38 36 37 37 37 38 36 35 32 29 30 30 27 28 26 23 24 26 24 22 23 25 27 28 28 32 32 28 30 31 30 32 32 29 31 31 31 32 34
16 13 12 12 13 13 13 13 13 13 12 12 13 15 19 22 25 31 35 36 35 34 35 36 36 36 35 33 32 34 36 39 40 36 35 36 37 37 36 38 41 43 42 42 43 42 41 39 36 35 36 36 36 35 33 30 27 26 26 26 26 25 23 23 24 22 22 22 22 25 26 24 29 33 31 29 29 27 28 29 28 28 29 29 31 32
14 12 12 12 12 13 13 14 13 12 11 10 10 12 15 19 23 28 34 35 33 32 33 33 33 35 36 34 33 34 36 39 39 37 37 36 35 35 35 36 39 41 43 43 43 43 43 41 36 34 35 34 33 33 30 27 26 25 25 26 25 25 24 22 22 21 21 22 24 25 25 23 24 29 28 24 24 24 23 25 27 26 27 28 29 31
13 12 13 13 12 14 14 12 11 10 9 8 9 10 12 16 20 24 28 30 33 36 36 35 34 33 34 36 35 36 39 40 39 38 38 36 33 32 34 37 38 40 42 43 43 44 44 42 38 34 33 32 30 29 28 27 26 25 25 25 25 25 23 22 22 21 21 21 23 24 22 20 20 21 22 20 21 23 21 22 26 26 25 26 28 29
13 13 15 14 13 15 13 11 10 10 9 8 8 8 10 13 17 21 24 28 34 38 40 38 33 30 32 35 37 38 41 41 39 38 37 35 33 33 35 37 38 38 41 43 44 43 42 41 37 33 30 28 27 26 27 29 27 24 24 23 23 23 22 22 21 20 20 19 20 20 18 18 18 17 18 18 20 23 22 22 25 26 23 24 26 27
14 14 16 15 14 14 13 10 10 11 10 8 7 8 10 11 15 18 22 26 28 34 38 35 31 30 29 32 36 37 39 41 39 37 37 34 33 34 35 35 37 37 38 40 43 43 42 41 38 35 28 22 23 26 27 28 26 23 21 21 21 21 21 21 20 19 19 18 17 17 17 17 17 17 18 19 20 22 24 23 24 25 23 22 23 24
15 15 16 16 15 13 12 10 10 11 10 9 8 9 11 11 13 15 18 22 24 28 32 30 30 30 26 27 33 33 36 40 38 34 35 34 33 34 34 34 36 36 36 38 41 42 42 42 41 37 29 22 23 26 25 24 24 22 20 20 20 19 20 20 20 19 18 17 17 16 17 16 16 17 18 20 21 21 23 23 23 24 23 21 21 21
16 16 16 17 15 13 12 12 11 11 11 9 10 12 11 10 11 13 14 18 22 22 23 24 26 27 23 23 29 32 33 36 35 33 34 34 33 33 32 33 35 36 36 37 38 40 42 42 43 40 33 26 23 23 24 24 24 23 21 19 19 19 20 20 19 19 18 17 16 16 16 16 16 16 17 19 20 20 21 22 22 22 22 21 20 21
15 16 16 16 15 12 13 14 12 12 12 10 11 11 11 10 10 12 13 16 20 19 17 19 22 22 20 20 25 31 32 32 33 32 34 35 33 32 32 32 34 35 36 36 36 38 39 42 43 41 35 29 23 22 24 25 24 23 20 18 18 18 19 19 19 18 18 17 16 15 15 15 15 15 16 17 18 19 19 20 20 21 21 22 21 22
15 16 16 15 14 13 13 14 13 13 13 12 12 11 11 12 12 13 15 16 18 18 17 16 16 18 19 18 21 26 28 31 32 30 33 35 33 32 31 32 33 34 36 37 36 36 38 41 42 40 36 32 27 24 23 24 24 22 20 18 18 18 18 19 19 18 18 17 15 15 15 16 16 16 16 16 18 18 19 19 19 20 20 21 21 23
14 15 15 15 14 14 13 14 14 14 13 13 12 13 14 16 17 18 18 18 17 16 15 15 15 16 16 16 18 21 24 28 31 30 31 33 34 32 30 30 32 33 34 35 35 35 36 38 40 40 39 37 31 24 20 21 21 21 20 19 18 17 18 19 20 18 18 18 16 15 15 16 17 17 16 17 17 18 19 19 19 19 19 19 19 20
14 14 15 15 14 13 13 12 14 14 13 13 12 13 15 17 21 22 19 18 17 15 14 15 15 15 14 14 16 17 19 25 29 30 30 31 33 33 30 30 31 32 33 33 33 33 34 36 38 39 41 41 35 27 20 17 18 17 17 17 17 17 17 18 19 18 18 18 17 15 16 17 17 17 18 17 18 18 18 19 18 19 19 18 18 18
15 14 13 14 14 13 12 11 14 13 12 12 11 13 15 16 19 21 18 16 16 14 15 16 16 14 12 14 14 14 17 22 26 28 28 29 31 31 31 30 30 30 32 32 31 31 33 34 36 37 39 40 38 32 24 19 17 16 15 14 15 16 16 17 17 18 18 18 17 16 15 16 17 17 18 18 18 18 18 18 18 18 18 18 18 18
16 14 12 14 14 13 13 12 12 14 14 12 11 13 15 14 15 17 16 15 14 13 15 16 15 12 11 14 15 15 17 20 23 26 27 29 30 30 30 29 28 29 31 31 30 31 33 35 35 35 36 37 38 37 31 23 18 15 13 12 13 13 14 15 15 16 17 17 17 16 15 16 17 18 19 17 17 17 17 18 18 17 18 18 18 18
18 16 14 14 15 14 14 13 12 13 15 14 12 12 12 11 12 15 16 15 15 16 15 15 15 12 10 12 13 14 17 18 21 24 26 28 29 30 30 29 28 29 30 31 31 32 34 36 34 33 33 34 35 35 34 29 23 18 14 12 12 12 13 14 14 14 15 16 16 15 15 16 17 19 19 18 17 18 18 18 18 18 17 18 18 19
19 19 17 15 15 15 14 14 13 12 14 16 14 11 11 12 13 14 16 16 15 15 12 10 12 12 11 12 12 13 15 17 19 21 23 26 28 29 30 29 29 30 31 32 33 33 33 33 33 32 32 32 31 31 33 32 30 25 19 14 12 11 12 12 13 13 14 15 15 15 15 15 17 19 19 19 21 21 21 21 20 20 19 19 19 20
21 21 20 17 15 15 15 15 15 13 13 15 15 13 14 15 13 13 16 16 14 14 11 9 9 10 11 12 12 13 14 15 17 19 22 24 27 29 29 29 29 31 32 32 33 33 32 30 29 30 30 30 30 29 30 32 33 32 28 22 17 14 12 12 12 13 13 14 15 15 15 16 18 19 19 21 23 24 24 24 23 23 23 23 22 22
22 22 23 19 16 16 16 16 16 15 14 15 16 16 16 14 13 12 13 11 12 14 13 11 10 9 9 9 9 11 13 15 16 18 21 24 26 28 28 28 29 31 32 32 34 33 32 30 30 31 31 31 32 33 33 35 36 36 35 32 27 22 18 16 15 15 15 16 16 17 17 18 19 20 21 22 24 25 25 25 26 25 25 26 25 24
24 23 25 22 18 18 17 15 15 15 15 15 16 18 17 15 14 15 13 10 11 13 14 12 11 11 10 8 7 8 11 14 15 16 20 22 24 26 28 29 29 31 33 33 34 33 33 34 35 36 36 34 34 35 37 38 39 40 40 38 35 31 26 23 22 20 19 20 19 20 20 21 22 22 23 24 24 25 25 26 26 26 27 27 26 26
27 26 26 24 21 19 17 15 15 16 16 14 14 16 16 13 14 17 17 14 11 12 13 12 12 11 10 7 7 7 8 10 12 14 17 20 22 24 28 29 29 31 33 34 35 33 34 36 37 38 37 34 32 33 35 36 38 41 41 39 39 37 33 29 28 26 26 25 25 24 23 23 23 24 24 25 25 25 25 25 25 25 26 27 27 27
31 29 27 26 23 20 19 18 17 17 17 15 14 14 14 13 14 17 18 16 13 12 11 11 12 12 9 7 7 7 7 8 10 13 16 18 20 23 26 27 28 31 33 34 35 34 34 36 37 36 36 35 33 33 34 34 35 37 37 39 41 40 36 33 33 31 31 31 31 30 29 27 26 25 26 26 26 25 25 24 24 25 25 26 27 27
32 32 30 29 26 23 21 21 19 18 18 17 17 15 14 13 14 14 14 14 15 13 10 10 12 11 9 8 7 7 8 8 9 12 16 18 21 22 24 26 29 31 33 33 33 34 33 34 35 35 36 36 36 36 36 35 35 35 35 37 39 40 39 38 37 35 34 34 35 36 35 34 32 30 29 29 28 27 25 25 25 25 25 26 27 27
32 33 31 32 32 29 26 23 21 20 19 19 18 17 16 16 15 15 12 12 16 16 13 12 12 11 11 9 8 8 8 9 9 10 14 18 20 22 23 24 27 30 32 32 33 33 33 32 33 34 35 36 36 37 37 36 37 37 37 38 39 40 42 42 41 38 36 36 37 38 38 39 38 36 35 34 32 29 27 26 26 26 25 25 26 27
35 36 34 34 35 32 28 27 24 21 19 19 19 19 18 17 16 16 14 15 18 17 15 14 13 13 14 11 9 9 8 8 9 10 12 15 17 19 20 21 23 26 28 30 31 32 32 32 32 32 33 33 34 36 37 37 37 38 39 40 41 42 45 45 43 41 38 37 38 40 40 41 41 40 40 39 36 33 30 28 28 27 26 25 25 26
38 41 39 40 40 36 34 33 27 23 21 19 19 20 20 19 17 17 16 17 18 16 14 14 13 14 16 13 10 10 8 8 10 10 10 12 13 15 16 17 19 21 24 25 26 28 30 31 31 31 31 31 33 36 37 37 37 37 38 40 41 43 46 47 46 43 40 38 39 40 41 41 41 41 43 43 39 36 34 32 30 30 30 28 26 26
40 41 39 42 43 39 38 35 28 25 24 21 20 21 20 19 18 17 17 17 18 16 14 13 13 14 16 16 13 11 9 9 10 9 10 11 12 12 12 13 14 16 19 21 21 23 25 28 28 28 29 30 33 36 36 38 38 37 37 39 40 42 44 46 47 45 42 40 40 40 39 40 41 41 42 42 40 37 36 35 33 32 33 32 30 29
41 41 38 39 39 36 35 34 31 29 28 26 24 22 21 20 19 18 17 17 17 17 16 14 15 14 14 14 13 11 10 10 9 9 9 10 11 10 10 10 10 10 13 17 20 21 22 24 26 25 26 27 31 35 36 37 38 37 37 38 40 41 43 45 46 46 43 41 40 39 39 40 41 41 41 41 39 37 36 37 36 35 34 34 33 34
42 44 41 36 35 35 34 34 33 32 31 29 27 25 23 22 20 19 19 17 17 19 17 16 18 17 14 13 12 11 10 10 10 10 11 11 10 10 10 9 9 9 10 12 17 18 18 19 19 20 22 24 27 31 34 35 37 37 37 39 41 42 43 45 45 44 43 41 41 40 40 40 41 41 41 40 38 36 36 38 39 37 35 35 35 36
43 45 42 36 35 35 33 32 33 33 32 31 29 27 25 24 23 21 21 20 20 20 17 16 18 18 15 14 13 12 11 11 10 11 11 11 10 10 10 10 9 9 9 10 12 13 12 12 12 14 18 20 23 26 29 31 33 34 35 38 41 43 43 45 45 44 42 42 41 41 40 38 38 40 40 39 37 37 37 39 40 39 38 37 37 38
43 42 40 39 38 36 33 32 32 31 31 30 29 28 27 25 24 22 22 21 20 19 18 17 17 16 14 14 13 12 12 10 10 10 10 10 10 10 10 9 9 9 9 9 11 11 9 9 9 10 14 16 18 20 23 26 29 32 33 34 37 41 42 43 44 42 41 41 41 40 38 36 37 38 38 38 38 39 40 41 42 42 41 40 41 41
44 41 39 40 41 38 35 33 32 31 32 31 28 27 28 27 26 24 23 22 21 21 20 18 17 16 15 15 15 15 14 12 10 11 10 10 10 10 10 9 9 10 9 9 12 12 11 10 9 10 11 13 14 15 18 21 25 28 32 33 35 38 40 41 41 40 39 39 39 37 36 36 36 36 37 38 39 41 42 43 43 42 41 42 45 45
47 44 41 40 41 42 38 34 33 34 35 32 30 28 27 27 27 26 24 24 23 22 21 19 19 18 18 18 18 17 16 14 12 12 11 11 11 11 11 10 10 11 11 10 12 13 12 10 10 10 10 11 12 13 15 19 22 26 31 34 34 34 37 40 41 40 39 37 36 35 35 35 36 36 37 39 40 42 42 42 43 43 43 46 48 48
50 48 45 42 42 42 40 39 38 38 36 34 33 33 30 29 29 29 30 30 28 27 25 23 22 21 20 20 20 19 17 15 13 12 12 12 11 11 11 12 11 11 12 12 12 13 12 11 10 10 10 10 11 13 14 18 24 28 31 34 34 33 35 38 39 40 39 37 35 35 34 34 35 36 38 39 41 41 41 41 42 43 44 47 48 49
50 50 47 45 43 41 40 41 41 40 36 33 35 35 34 34 35 34 33 31 31 32 32 28 25 24 22 21 21 20 18 17 15 14 13 13 12 12 11 11 11 12 14 15 14 13 11 11 11 10 10 11 11 13 15 19 24 28 29 32 34 35 36 36 38 38 38 36 34 33 34 36 38 39 38 39 40 40 40 39 40 41 44 47 48 50
48 51 49 46 44 43 41 39 39 38 35 33 35 38 39 41 41 37 33 33 35 36 34 30 28 26 24 23 24 24 23 21 19 16 14 13 12 12 12 13 13 14 16 15 14 13 11 11 11 11 11 11 11 12 15 19 23 25 27 30 34 36 37 37 37 37 37 36 35 34 36 38 40 40 40 39 39 38 38 39 40 42 44 46 48 50
44 48 50 48 44 43 44 41 39 38 36 35 37 42 43 40 40 37 35 38 43 42 36 33 31 29 27 26 27 27 26 24 19 18 18 18 16 15 16 17 17 18 17 16 14 14 14 13 12 11 11 11 12 13 15 18 22 23 25 29 33 36 38 37 35 34 35 35 37 38 39 41 41 42 41 39 38 38 38 40 42 45 46 46 47 49
45 46 49 50 45 42 44 42 39 39 40 41 44 48 43 35 37 40 36 37 44 43 38 36 33 31 30 29 29 30 28 23 20 21 25 27 25 23 22 23 23 22 20 18 17 16 15 14 13 12 13 12 12 14 15 17 20 23 24 28 31 35 39 37 34 33 34 36 38 39 39 40 40 39 38 36 36 38 40 43 45 47 48 48 48 50
50 49 49 50 46 43 43 42 39 38 40 45 51 54 48 38 39 42 39 42 48 47 42 40 36 33 33 32 32 32 29 26 24 26 29 30 29 28 28 26 26 25 22 22 21 19 17 16 15 15 17 16 14 14 15 16 19 21 23 25 28 32 37 37 35 34 34 35 36 37 37 37 37 37 36 35 36 38 41 44 46 47 48 48 49 51
55 52 49 47 44 42 42 42 41 39 40 42 46 50 49 41 36 38 42 50 54 51 48 47 42 37 36 34 32 32 30 30 30 30 30 31 31 32 32 29 28 28 27 26 24 21 20 20 17 16 18 17 15 15 15 15 17 20 21 22 25 29 34 36 35 34 33 34 35 35 35 35 35 36 37 38 38 39 41 45 47 48 47 48 51 52
58 56 52 47 43 40 39 39 40 40 42 43 40 40 41 38 36 42 50 55 54 49 48 47 44 43 41 38 35 34 33 33 33 31 31 32 33 35 35 33 31 31 31 31 28 26 26 25 20 19 18 17 17 16 15 15 16 18 19 20 24 27 31 34 35 34 34 34 35 37 37 37 36 37 39 40 40 40 42 44 46 47 47 48 51 52
58 58 56 51 45 42 40 39 40 42 46 47 43 41 42 41 44 51 53 52 50 47 44 43 42 43 42 40 39 38 36 36 35 33 33 34 34 36 37 36 35 34 33 34 33 32 32 30 25 22 20 19 19 19 18 16 16 17 18 20 23 28 32 35 36 35 34 33 33 35 37 37 37 38 39 40 40 40 41 43 45 47 47 48 50 51
52 56 60 60 56 53 47 41 41 46 51 50 45 45 49 48 48 51 52 50 49 46 42 40 40 41 41 41 40 39 38 38 36 35 35 35 34 35 36 36 37 37 35 36 37 36 36 35 32 27 23 21 20 21 23 22 20 19 19 19 21 24 29 32 34 34 34 33 32 33 34 35 35 34 35 37 37 38 40 42 45 47 46 46 47 49
53 55 60 64 65 64 56 45 41 43 45 45 42 45 51 51 48 49 52 53 51 48 45 43 39 39 41 42 42 40 39 38 38 37 37 37 35 35 36 36 37 37 37 37 39 39 39 39 38 35 31 27 23 23 25 25 23 22 21 21 21 22 23 25 27 28 31 32 33 33 33 34 33 32 32 34 36 37 40 42 43 44 43 43 46 47
56 56 58 58 60 60 56 48 44 41 37 36 37 38 42 46 48 51 54 56 55 52 49 46 42 40 41 42 43 43 41 39 39 39 38 38 37 37 37 37 37 37 37 37 39 40 39 39 40 39 38 35 31 28 27 26 24 23 22 22 23 24 24 24 24 25 27 29 31 32 33 34 36 35 34 34 36 39 40 41 43 43 42 44 46 47
51 53 57 56 55 55 53 48 46 44 39 35 33 34 37 42 47 53 58 60 62 60 54 49 44 42 42 43 43 44 42 41 41 41 40 40 40 39 38 38 38 39 38 38 39 40 40 40 40 40 39 39 37 35 33 31 29 27 26 25 25 26 26 24 24 24 26 27 28 30 31 34 38 40 40 39 39 42 43 44 45 45 44 46 48 49
52 55 58 57 55 54 52 47 43 42 40 34 32 36 43 46 49 53 57 61 65 65 63 58 52 46 44 45 46 44 43 42 42 42 43 43 43 43 42 40 40 41 40 39 40 40 41 41 41 41 41 40 40 39 38 37 36 34 33 33 32 33 32 29 27 25 25 26 28 29 30 33 35 38 41 42 42 44 46 47 46 46 46 48 49 51
54 55 54 55 55 53 48 43 39 37 35 33 33 39 45 50 53 53 54 57 60 62 64 63 58 52 49 49 50 48 45 44 43 43 44 45 45 45 45 43 43 43 42 41 42 42 43 43 42 42 42 41 41 41 40 39 38 37 37 38 38 39 39 36 34 32 30 31 33 32 32 33 34 35 38 41 43 45 46 46 45 44 45 47 49 51
52 51 51 54 55 52 45 41 41 42 40 36 38 40 42 47 54 54 53 57 58 58 62 63 60 59 58 56 55 55 52 49 48 47 47 47 47 48 48 47 46 45 44 44 44 44 44 44 43 43 43 42 42 42 41 40 40 38 38 39 40 40 42 42 40 39 38 38 39 37 35 37 38 37 36 38 40 43 44 44 42 42 43 44 46 46
46 46 49 52 51 48 44 42 45 49 44 36 37 39 38 42 51 53 54 57 56 54 60 63 62 65 67 63 60 60 57 54 52 51 51 51 51 51 51 50 48 48 47 46 45 44 43 43 43 43 43 43 42 42 41 41 40 39 39 40 40 41 42 40 38 37 36 35 35 34 33 34 35 35 35 37 39 40 42 42 42 41 39 39 39 39